Content
SEND FEEDBACK

Daily
Averages
Monthly
Summary
Switzerland

GENEVA, SWITZERLAND


Home > Europe > Switzerland
Elevation: 1364 feet     Latitude: 46 15N     Longitude: 006 08E

WEATHER
 
SELECT A DAY
Number of Records: 315,276;   Date Range: 7/1/96 - 11/20/14
 
SHARE

PRINT THIS DATA

[ ← Previous Day ]
WEATHER ALMANAC - APRIL 23, 2013
[ Next Day → ]
[ °C ]   °F
Weather ElementAverageHighLow
Temperature51.8 °F64.4 °F (5:20 pm)37.4 °F (6:50 am)
Dewpoint40.5 °F44.6 °F (10:20 pm)36 °F (6:00 am)
Humidity66.2 %100 % (6:50 am)26 % (6:00 pm)
Barometer30.19 in30.27 in (11:20 pm)30.09 in (12:20 am)
Wind Speed4.1 mph10.4 mph (1:00 pm)
Weather ElementAverage
Visibility7.5 mi
Wind DirectionE (85.4 °)

Weather ElementTotal
Precipitation---
Heating Degree Days14.1 (Base 65)
Growing Degree Days0.9 (Base 50)
Averaged from 66 records on April 23, 2013
WEATHER CONDITIONS BREAKOUT
WIND DIRECTION BREAKOUT
WEATHER BY HOUR - APRIL 23, 2013
[ °C ]   °F
Local TimeTemperatureDewpointHumidityBarometerVisibilityWind DirectionWind SpeedGust SpeedPrecipitationEventsConditions
12:20 AM46.4 °F42.8 °F87 %30.09 in6.2 miVariable1.2 mphPartly Cloudy
12:50 AM44.6 °F42.8 °F93 %30.09 in6.2 miCalmPartly Cloudy
1:00 AM45.0 °F41.0 °F82 %30.14 inWSW (250°)2.3 mph
1:20 AM44.6 °F41.0 °F87 %30.09 inCalmClear
1:50 AM42.8 °F41.0 °F93 %30.09 inWSW (250°)1.2 mphClear
2:00 AM42.0 °F39.0 °F86 %30.16 in16.0 miNW (320°)2.3 mph
2:20 AM42.8 °F41.0 °F93 %30.12 inVariable1.2 mphClear
2:50 AM41.0 °F39.2 °F93 %30.09 inCalmClear
3:00 AM42.0 °F40.0 °F88 %30.15 inNW (310°)3.5 mph
3:50 AM41.0 °F39.2 °F93 %30.12 inCalmClear
4:00 AM41.0 °F38.0 °F83 %30.17 inWest (270°)1.2 mph
4:20 AM39.2 °F37.4 °F93 %30.12 inCalmClear
4:50 AM39.2 °F37.4 °F93 %30.12 inVariable1.2 mphClear
5:20 AM39.2 °F37.4 °F93 %30.12 inVariable1.2 mphClear
5:50 AM39.2 °F37.4 °F93 %30.12 inCalmClear
6:00 AM39.0 °F36.0 °F87 %30.19 inNW (320°)1.2 mph
6:20 AM39.2 °F37.4 °F93 %30.12 inCalmClear
6:50 AM37.4 °F37.4 °F100 %30.15 inCalmClear
7:00 AM39.0 °F36.0 °F84 %30.20 inCalm
7:20 AM39.2 °F37.4 °F93 %30.15 inCalmClear
7:50 AM41.0 °F39.2 °F93 %30.18 in6.2 miNW (310°)2.3 mphPartly Cloudy
8:00 AM43.0 °F38.0 °F78 %30.22 in11.0 miNW (310°)3.5 mphScattered Clouds
8:20 AM46.4 °F39.2 °F76 %30.18 in6.2 miCalmScattered Clouds
8:50 AM46.4 °F41.0 °F81 %30.18 in6.2 miCalmMostly Cloudy
9:00 AM47.0 °F42.0 °F76 %30.22 inNNW (340°)1.2 mph
9:20 AM50.0 °F42.8 °F76 %30.21 in6.2 miVariable1.2 mphPartly Cloudy
9:50 AM51.8 °F42.8 °F71 %30.21 in6.2 miVariable2.3 mphPartly Cloudy
10:00 AM51.0 °F41.0 °F60 %30.22 inENE (60°)3.5 mph
10:20 AM53.6 °F42.8 °F67 %30.21 in6.2 miNE (40°)4.6 mphPartly Cloudy
10:50 AM53.6 °F42.8 °F67 %30.21 in6.2 miNE (50°)6.9 mphPartly Cloudy
11:20 AM55.4 °F42.8 °F63 %30.21 in6.2 miNE (40°)6.9 mphPartly Cloudy
11:50 AM57.2 °F42.8 °F59 %30.21 in6.2 miNNE (30°)8.1 mphPartly Cloudy
12:00 PM56.0 °F40.0 °F43 %30.23 inNNE (30°)9.2 mph
12:20 PM57.2 °F41.0 °F55 %30.21 in6.2 miNE (40°)9.2 mphPartly Cloudy
12:50 PM59.0 °F42.8 °F55 %30.21 in6.2 miNNE (30°)9.2 mphPartly Cloudy
1:00 PM58.0 °F41.0 °F41 %30.22 inNE (50°)10.4 mph
1:20 PM59.0 °F41.0 °F51 %30.21 in6.2 miNE (50°)8.1 mphPartly Cloudy
1:50 PM60.8 °F42.8 °F52 %30.21 in6.2 miNE (40°)10.4 mphPartly Cloudy
2:00 PM61.0 °F42.0 °F38 %30.21 in16.0 miENE (60°)9.2 mphScattered Clouds
2:20 PM60.8 °F41.0 °F48 %30.21 in6.2 miENE (70°)8.1 mphPartly Cloudy
2:50 PM60.8 °F41.0 °F48 %30.21 in6.2 miENE (60°)10.4 mphPartly Cloudy
3:00 PM61.0 °F40.0 °F35 %30.20 inENE (60°)10.4 mph
3:20 PM62.6 °F42.8 °F48 %30.21 in6.2 miNE (50°)8.1 mphPartly Cloudy
3:50 PM62.6 °F42.8 °F48 %30.21 in6.2 miENE (60°)9.2 mphPartly Cloudy
4:00 PM63.0 °F40.0 °F31 %30.18 inENE (60°)10.4 mph
4:20 PM62.6 °F41.0 °F45 %30.21 in6.2 miENE (70°)10.4 mphPartly Cloudy
4:50 PM62.6 °F39.2 °F42 %30.18 in6.2 miENE (70°)10.4 mphPartly Cloudy
5:20 PM64.4 °F37.4 °F37 %30.18 in6.2 miENE (70°)9.2 mphPartly Cloudy
5:50 PM62.6 °F37.4 °F39 %30.18 in6.2 miENE (60°)6.9 mphPartly Cloudy
6:00 PM63.0 °F37.0 °F26 %30.18 inENE (70°)6.9 mph
6:20 PM64.4 °F37.4 °F37 %30.18 in6.2 miENE (60°)4.6 mphPartly Cloudy
6:50 PM62.6 °F39.2 °F42 %30.21 in6.2 miENE (70°)4.6 mphPartly Cloudy
7:00 PM62.0 °F39.0 °F31 %30.18 inENE (70°)5.8 mph
7:20 PM62.6 °F39.2 °F42 %30.21 in6.2 miNE (40°)5.8 mphPartly Cloudy
7:50 PM60.8 °F41.0 °F48 %30.21 in6.2 miNE (50°)5.8 mphPartly Cloudy
8:00 PM60.0 °F40.0 °F36 %30.19 in22.0 miNNE (30°)3.5 mphScattered Clouds
8:20 PM59.0 °F41.0 °F51 %30.21 in6.2 miNNE (20°)2.3 mphPartly Cloudy
8:50 PM55.4 °F42.8 °F63 %30.21 inVariable2.3 mphClear
9:00 PM54.0 °F42.0 °F53 %30.23 inNW (320°)2.3 mph
9:20 PM53.6 °F42.8 °F67 %30.24 inNW (310°)2.3 mphClear
9:50 PM53.6 °F42.8 °F67 %30.24 inVariable1.2 mphClear
10:00 PM53.0 °F42.0 °F58 %30.26 inWest (280°)1.2 mph
10:20 PM51.8 °F44.6 °F76 %30.24 inCalmClear
10:50 PM50.0 °F44.6 °F82 %30.24 inENE (70°)3.5 mphClear
11:20 PM48.2 °F42.8 °F82 %30.27 inNE (40°)2.3 mphClear
11:50 PM50.0 °F42.8 °F76 %30.27 inWNW (290°)2.3 mphClear
Hourly data recorded from LSGG, located miles away from Geneva, Switzerland







STORIES FROM OUR PARTNERS